WMT9015 LIRF-HEMA

Flight info

Callsign WMT9015
Flight time N/A
Altitude 35000
Route XIBRI5AXPEPIX9A/25 PEPIX L50 UNIXO/N0449F330 DCT ADMAS DCT BELIX DCT SALUN/N0452F350 N705 BOPIX N710 TAKRI P751 LXR M999 ELELI V730 MAK
Aircraft A321/M-SDE1E2E3FGIJ1J4RWXY/LB1

Departure

Time N/A
Airport Rome–Fiumicino Leonardo da Vinci International Airport (LIRF)

Arrival

Time 2026-04-26 13:34
Airport Marsa Alam International Airport (HEMA)
Time Latitude Longitude Altitude Speed Heading
2026-04-26 10:44 39.56700 14.72845 35222 ft 444 kts 127°
2026-04-26 10:44 39.52873 14.79132 35221 ft 444 kts 127°
2026-04-26 10:45 39.49042 14.85411 35221 ft 444 kts 127°
2026-04-26 10:45 39.45196 14.91674 35221 ft 444 kts 127°
2026-04-26 10:46 39.41353 14.97929 35221 ft 444 kts 127°
2026-04-26 10:46 39.37505 15.04173 35225 ft 444 kts 127°
2026-04-26 10:47 39.33660 15.10417 35223 ft 444 kts 127°
2026-04-26 10:47 39.29836 15.16608 35228 ft 444 kts 127°
2026-04-26 10:48 39.25980 15.22837 35232 ft 444 kts 127°
2026-04-26 10:48 39.22132 15.29057 35240 ft 444 kts 127°
2026-04-26 10:49 39.18279 15.35269 35240 ft 444 kts 127°
2026-04-26 10:49 39.14418 15.41474 35244 ft 444 kts 127°
2026-04-26 10:50 39.11176 15.46663 35244 ft 443 kts 127°
2026-04-26 10:50 39.06682 15.53851 35246 ft 443 kts 127°
2026-04-26 10:51 39.00880 15.63112 35244 ft 443 kts 127°
2026-04-26 10:52 38.97008 15.69276 35245 ft 443 kts 127°
2026-04-26 10:52 38.93130 15.75429 35240 ft 443 kts 127°
2026-04-26 10:53 38.89251 15.81584 35243 ft 443 kts 127°
2026-04-26 10:53 38.85380 15.87727 35237 ft 443 kts 127°
2026-04-26 10:54 38.79556 15.96916 35231 ft 443 kts 127°
2026-04-26 10:54 38.75674 16.03040 35230 ft 443 kts 127°
2026-04-26 10:55 38.71787 16.09157 35227 ft 442 kts 127°
2026-04-26 10:55 38.68554 16.14232 35231 ft 443 kts 127°
2026-04-26 10:56 38.64000 16.21357 35224 ft 442 kts 127°
2026-04-26 10:56 38.60102 16.27449 35221 ft 442 kts 127°
2026-04-26 10:57 38.56212 16.33536 35213 ft 442 kts 127°
2026-04-26 10:57 38.52317 16.39619 35207 ft 442 kts 127°
2026-04-26 10:58 38.48410 16.45692 35201 ft 442 kts 127°
2026-04-26 10:58 38.44523 16.51714 35196 ft 442 kts 127°
2026-04-26 10:59 38.40615 16.57769 35191 ft 442 kts 127°
2026-04-26 10:59 38.36701 16.63813 35185 ft 442 kts 126°
2026-04-26 11:00 38.32784 16.69844 35180 ft 442 kts 126°
2026-04-26 11:00 38.28864 16.75887 35172 ft 442 kts 126°
2026-04-26 11:01 38.24930 16.81959 35176 ft 442 kts 126°
2026-04-26 11:01 38.21007 16.87988 35186 ft 442 kts 127°
2026-04-26 11:02 38.17077 16.93994 35174 ft 442 kts 126°
2026-04-26 11:02 38.13143 16.99999 35180 ft 442 kts 126°
2026-04-26 11:03 38.09236 17.05959 35177 ft 442 kts 126°
2026-04-26 11:03 38.05300 17.11955 35171 ft 442 kts 126°
2026-04-26 11:04 38.01368 17.17932 35174 ft 442 kts 126°
2026-04-26 11:04 37.97431 17.23907 35173 ft 441 kts 127°
2026-04-26 11:05 37.94129 17.28910 35171 ft 441 kts 127°
2026-04-26 11:05 37.90192 17.34875 35158 ft 441 kts 127°
2026-04-26 11:06 37.86252 17.40830 35171 ft 441 kts 127°
2026-04-26 11:06 37.82307 17.46779 35172 ft 441 kts 127°
2026-04-26 11:07 37.78358 17.52722 35168 ft 441 kts 127°
2026-04-26 11:07 37.74402 17.58660 35169 ft 441 kts 127°
2026-04-26 11:08 37.70447 17.64585 35163 ft 441 kts 127°
2026-04-26 11:08 37.66488 17.70507 35165 ft 441 kts 127°
2026-04-26 11:09 37.62524 17.76419 35167 ft 441 kts 127°
2026-04-26 11:09 37.58583 17.82288 35161 ft 441 kts 127°
2026-04-26 11:10 37.54871 17.88407 35162 ft 438 kts 120°
2026-04-26 11:10 37.51572 17.94861 35161 ft 438 kts 120°
2026-04-26 11:11 37.48265 18.01313 35159 ft 438 kts 120°
2026-04-26 11:11 37.44942 18.07752 35155 ft 439 kts 120°
2026-04-26 11:12 37.41614 18.14187 35159 ft 439 kts 120°
2026-04-26 11:12 37.38282 18.20622 35154 ft 439 kts 120°
2026-04-26 11:13 37.34948 18.27051 35155 ft 439 kts 120°
2026-04-26 11:13 37.31613 18.33476 35153 ft 439 kts 120°
2026-04-26 11:14 37.28266 18.39895 35154 ft 439 kts 120°
2026-04-26 11:14 37.24921 18.46321 35153 ft 440 kts 120°
2026-04-26 11:15 37.21565 18.52735 35153 ft 440 kts 121°
2026-04-26 11:15 37.18205 18.59143 35152 ft 440 kts 121°
2026-04-26 11:16 37.14848 18.65563 35158 ft 440 kts 121°
2026-04-26 11:16 37.11483 18.71975 35153 ft 440 kts 121°
2026-04-26 11:17 37.08103 18.78374 35157 ft 441 kts 121°
2026-04-26 11:17 37.04718 18.84770 35152 ft 441 kts 121°
2026-04-26 11:18 37.01338 18.91182 35153 ft 441 kts 121°
2026-04-26 11:18 36.97952 18.97577 35151 ft 441 kts 121°
2026-04-26 11:19 36.94585 19.03993 35148 ft 441 kts 120°
2026-04-26 11:19 36.91331 19.10488 35147 ft 441 kts 119°
2026-04-26 11:20 36.88644 19.15906 35148 ft 441 kts 120°
2026-04-26 11:20 36.84840 19.23501 35137 ft 442 kts 120°
2026-04-26 11:21 36.81545 19.29983 35143 ft 442 kts 120°
2026-04-26 11:21 36.78244 19.36460 35138 ft 443 kts 120°
2026-04-26 11:22 36.74948 19.42958 35138 ft 443 kts 120°
2026-04-26 11:22 36.71650 19.49455 35132 ft 444 kts 120°
2026-04-26 11:23 36.68334 19.55945 35136 ft 444 kts 120°
2026-04-26 11:23 36.65014 19.62445 35133 ft 445 kts 120°
2026-04-26 11:24 36.61683 19.68941 35135 ft 445 kts 121°
2026-04-26 11:24 36.58344 19.75443 35127 ft 446 kts 121°
2026-04-26 11:25 36.55001 19.81947 35134 ft 447 kts 121°
2026-04-26 11:25 36.51645 19.88453 35128 ft 447 kts 121°
2026-04-26 11:26 36.48284 19.94972 35135 ft 448 kts 121°
2026-04-26 11:26 36.44915 20.01485 35131 ft 448 kts 121°
2026-04-26 11:27 36.41541 20.08001 35135 ft 448 kts 121°
2026-04-26 11:27 36.38165 20.14509 35135 ft 448 kts 121°
2026-04-26 11:28 36.34784 20.21017 35132 ft 449 kts 121°
2026-04-26 11:28 36.31416 20.27469 35127 ft 449 kts 121°
2026-04-26 11:29 36.28003 20.34009 35128 ft 449 kts 121°
2026-04-26 11:29 36.24603 20.40509 35125 ft 450 kts 121°
2026-04-26 11:30 36.21764 20.45913 35130 ft 450 kts 121°
2026-04-26 11:30 36.17770 20.53513 35127 ft 451 kts 121°
2026-04-26 11:31 36.14375 20.59985 35120 ft 452 kts 121°
2026-04-26 11:31 36.10947 20.66500 35115 ft 452 kts 122°
2026-04-26 11:32 36.07474 20.73061 35113 ft 453 kts 122°
2026-04-26 11:32 36.04044 20.79536 35108 ft 454 kts 122°
2026-04-26 11:33 36.00587 20.86055 35117 ft 454 kts 122°
2026-04-26 11:33 35.97115 20.92582 35107 ft 455 kts 122°
2026-04-26 11:34 35.93636 20.99110 35110 ft 456 kts 122°
2026-04-26 11:34 35.90154 21.05650 35105 ft 456 kts 122°
2026-04-26 11:35 35.86646 21.12237 35102 ft 456 kts 122°
2026-04-26 11:35 35.83739 21.17669 35111 ft 457 kts 122°
2026-04-26 11:36 35.79661 21.25256 35111 ft 457 kts 122°
2026-04-26 11:36 35.76151 21.31786 35106 ft 458 kts 122°
2026-04-26 11:37 35.72639 21.38320 35109 ft 458 kts 122°
2026-04-26 11:37 35.69113 21.44846 35107 ft 458 kts 122°
2026-04-26 11:38 35.65579 21.51399 35112 ft 458 kts 122°
2026-04-26 11:38 35.62052 21.57931 35107 ft 459 kts 122°
2026-04-26 11:39 35.58518 21.64453 35110 ft 459 kts 122°
2026-04-26 11:39 35.54972 21.70975 35102 ft 459 kts 122°
2026-04-26 11:40 35.51429 21.77478 35104 ft 459 kts 122°
2026-04-26 11:40 35.49656 21.80731 34960 ft 459 kts 121°
2026-04-26 11:40 35.47879 21.83989 35089 ft 460 kts 121°
2026-04-26 11:42 35.33515 22.10216 35101 ft 464 kts 121°
2026-04-26 11:43 35.29908 22.16765 35103 ft 464 kts 121°
2026-04-26 11:43 35.26298 22.23318 35114 ft 465 kts 121°
2026-04-26 11:44 35.22679 22.29868 35109 ft 465 kts 121°
2026-04-26 11:44 35.19051 22.36418 35101 ft 465 kts 121°
2026-04-26 11:45 35.15414 22.42963 35098 ft 465 kts 121°
2026-04-26 11:45 35.11782 22.49502 35098 ft 465 kts 121°
2026-04-26 11:46 35.07831 22.55775 35095 ft 468 kts 130°
2026-04-26 11:46 35.04170 22.60648 35094 ft 469 kts 130°
2026-04-26 11:47 34.99744 22.66503 35089 ft 469 kts 130°
2026-04-26 11:47 34.95307 22.72356 35085 ft 470 kts 130°
2026-04-26 11:48 34.90872 22.78216 35089 ft 471 kts 130°
2026-04-26 11:48 34.86424 22.84083 35085 ft 472 kts 130°
2026-04-26 11:49 34.81965 22.89949 35087 ft 472 kts 130°
2026-04-26 11:49 34.77500 22.95811 35083 ft 473 kts 130°
2026-04-26 11:50 34.73022 23.01677 35083 ft 473 kts 130°
2026-04-26 11:50 34.68536 23.07546 35086 ft 474 kts 130°
2026-04-26 11:51 34.64080 23.13385 35079 ft 475 kts 130°
2026-04-26 11:51 34.59582 23.19257 35076 ft 475 kts 130°
2026-04-26 11:52 34.55069 23.25123 35077 ft 476 kts 130°
2026-04-26 11:52 34.50552 23.30998 35073 ft 476 kts 130°
2026-04-26 11:53 34.46028 23.36876 35071 ft 477 kts 130°
2026-04-26 11:54 34.39229 23.45688 35070 ft 478 kts 131°
2026-04-26 11:54 34.34681 23.51567 35068 ft 478 kts 131°
2026-04-26 11:55 34.30123 23.57431 35065 ft 479 kts 131°
2026-04-26 11:55 34.25558 23.63307 35060 ft 480 kts 131°
2026-04-26 11:56 34.20988 23.69194 35062 ft 480 kts 131°
2026-04-26 11:56 34.16410 23.75072 35059 ft 481 kts 131°
2026-04-26 11:57 34.11818 23.80957 35060 ft 481 kts 131°
2026-04-26 11:57 34.07218 23.86836 35058 ft 482 kts 131°
2026-04-26 11:58 34.02550 23.92646 35056 ft 483 kts 133°
2026-04-26 11:58 33.97742 23.98322 35055 ft 484 kts 134°
2026-04-26 11:59 33.92903 24.03975 35053 ft 485 kts 134°
2026-04-26 11:59 33.88092 24.09668 35054 ft 485 kts 134°
2026-04-26 12:00 33.83294 24.15383 35048 ft 486 kts 134°
2026-04-26 12:00 33.78479 24.21100 35052 ft 487 kts 134°
2026-04-26 12:01 33.73643 24.26813 35044 ft 488 kts 134°
2026-04-26 12:01 33.68802 24.32526 35040 ft 488 kts 134°
2026-04-26 12:02 33.63948 24.38249 35033 ft 489 kts 135°
2026-04-26 12:02 33.59084 24.43967 35032 ft 490 kts 135°
2026-04-26 12:03 33.54215 24.49690 35035 ft 491 kts 135°
2026-04-26 12:03 33.49331 24.55422 35040 ft 491 kts 135°
2026-04-26 12:04 33.44441 24.61140 35039 ft 492 kts 135°
2026-04-26 12:04 33.39543 24.66862 35031 ft 492 kts 135°
2026-04-26 12:05 33.34673 24.72542 35030 ft 493 kts 136°
2026-04-26 12:05 33.29763 24.78262 35028 ft 493 kts 136°
2026-04-26 12:06 33.24844 24.83991 35022 ft 494 kts 136°
2026-04-26 12:06 33.19917 24.89712 35022 ft 494 kts 136°
2026-04-26 12:07 33.14983 24.95431 35019 ft 495 kts 136°
2026-04-26 12:07 33.10033 25.01148 35015 ft 495 kts 136°
2026-04-26 12:08 33.05087 25.06880 35019 ft 496 kts 136°
2026-04-26 12:08 33.00126 25.12603 35018 ft 497 kts 137°
2026-04-26 12:09 32.95151 25.18326 35022 ft 497 kts 137°
2026-04-26 12:09 32.90177 25.24045 35023 ft 498 kts 137°
2026-04-26 12:10 32.85190 25.29769 35025 ft 498 kts 137°
2026-04-26 12:10 32.80198 25.35481 35023 ft 498 kts 137°
2026-04-26 12:11 32.75228 25.41161 35021 ft 499 kts 137°
2026-04-26 12:11 32.70228 25.46881 35021 ft 499 kts 138°
2026-04-26 12:12 32.65219 25.52598 35021 ft 500 kts 138°
2026-04-26 12:12 32.60203 25.58309 35023 ft 500 kts 138°
2026-04-26 12:13 32.55177 25.64020 35016 ft 500 kts 138°
2026-04-26 12:13 32.50147 25.69729 35018 ft 501 kts 138°
2026-04-26 12:14 32.45111 25.75436 35017 ft 501 kts 139°
2026-04-26 12:14 32.40066 25.81133 35020 ft 502 kts 139°
2026-04-26 12:15 32.35014 25.86831 35017 ft 502 kts 139°
2026-04-26 12:15 32.29953 25.92534 35022 ft 502 kts 139°
2026-04-26 12:16 32.24894 25.98226 35015 ft 503 kts 139°
2026-04-26 12:16 32.19823 26.03923 35015 ft 503 kts 139°
2026-04-26 12:17 32.14748 26.09621 35015 ft 503 kts 140°
2026-04-26 12:17 32.09673 26.15309 35019 ft 504 kts 140°
2026-04-26 12:18 32.04592 26.21004 35015 ft 504 kts 140°
2026-04-26 12:18 31.99496 26.26690 35019 ft 504 kts 140°
2026-04-26 12:19 31.94394 26.32367 35021 ft 505 kts 140°
2026-04-26 12:19 31.89294 26.38044 35020 ft 505 kts 140°
2026-04-26 12:20 31.84213 26.43676 35020 ft 505 kts 141°
2026-04-26 12:20 31.79096 26.49345 35019 ft 506 kts 141°
2026-04-26 12:21 31.73983 26.55023 35023 ft 506 kts 141°
2026-04-26 12:21 31.68859 26.60693 35023 ft 506 kts 141°
2026-04-26 12:22 31.63725 26.66353 35026 ft 507 kts 141°
2026-04-26 12:22 31.58586 26.72015 35026 ft 507 kts 141°
2026-04-26 12:23 31.53446 26.77680 35025 ft 507 kts 141°
2026-04-26 12:23 31.48298 26.83339 35024 ft 507 kts 141°
2026-04-26 12:24 31.43127 26.88956 35020 ft 507 kts 143°
2026-04-26 12:24 31.37796 26.94335 35017 ft 505 kts 145°
2026-04-26 12:25 31.29685 27.02213 35012 ft 506 kts 145°
2026-04-26 12:25 31.24319 27.07537 35008 ft 506 kts 145°
2026-04-26 12:26 31.18964 27.12880 35010 ft 507 kts 145°
2026-04-26 12:26 31.13602 27.18224 35012 ft 507 kts 145°
2026-04-26 12:27 31.08267 27.23515 35024 ft 507 kts 145°
2026-04-26 12:27 31.02887 27.28820 35021 ft 506 kts 146°
2026-04-26 12:28 30.97508 27.34119 35014 ft 506 kts 146°
2026-04-26 12:28 30.92126 27.39414 35017 ft 506 kts 146°
2026-04-26 12:29 30.86753 27.44712 35006 ft 506 kts 146°
2026-04-26 12:30 30.78678 27.52645 35007 ft 506 kts 146°
2026-04-26 12:30 30.73295 27.57920 35009 ft 506 kts 146°
2026-04-26 12:31 30.65212 27.65821 35004 ft 506 kts 147°
2026-04-26 12:31 30.59830 27.71072 35004 ft 505 kts 147°
2026-04-26 12:32 30.54453 27.76318 34996 ft 505 kts 147°
2026-04-26 12:33 30.46379 27.84172 34989 ft 505 kts 147°
2026-04-26 12:33 30.40995 27.89400 34988 ft 505 kts 147°
2026-04-26 12:34 30.35609 27.94629 35000 ft 505 kts 147°
2026-04-26 12:34 30.30222 27.99851 34996 ft 505 kts 147°
2026-04-26 12:35 30.24827 28.05070 34993 ft 505 kts 148°
2026-04-26 12:35 30.20344 28.09391 34995 ft 505 kts 148°
2026-04-26 12:36 30.14939 28.14592 34994 ft 506 kts 148°
2026-04-26 12:36 30.09537 28.19800 34986 ft 506 kts 148°
2026-04-26 12:37 30.04129 28.25004 34990 ft 506 kts 148°
2026-04-26 12:37 29.98706 28.30210 34991 ft 507 kts 148°
2026-04-26 12:38 29.93282 28.35414 34993 ft 508 kts 149°
2026-04-26 12:38 29.87845 28.40616 34994 ft 508 kts 149°
2026-04-26 12:39 29.82400 28.45817 34997 ft 509 kts 149°
2026-04-26 12:39 29.76950 28.51019 34992 ft 509 kts 149°
2026-04-26 12:40 29.71490 28.56229 34993 ft 510 kts 149°
2026-04-26 12:40 29.66020 28.61435 34996 ft 511 kts 149°
2026-04-26 12:41 29.60583 28.66608 34999 ft 511 kts 149°
2026-04-26 12:41 29.55100 28.71804 35001 ft 511 kts 149°
2026-04-26 12:42 29.49617 28.76998 35006 ft 511 kts 149°
2026-04-26 12:42 29.44133 28.82191 35005 ft 511 kts 149°
2026-04-26 12:43 29.38647 28.87379 35003 ft 511 kts 150°
2026-04-26 12:43 29.33153 28.92557 35006 ft 512 kts 150°
2026-04-26 12:44 29.27652 28.97742 35020 ft 512 kts 150°
2026-04-26 12:44 29.22143 29.02921 35012 ft 512 kts 150°
2026-04-26 12:45 29.16637 29.08092 35014 ft 512 kts 150°
2026-04-26 12:45 29.11124 29.13261 35014 ft 512 kts 150°
2026-04-26 12:46 29.05612 29.18424 35021 ft 513 kts 150°
2026-04-26 12:46 29.00095 29.23591 35020 ft 513 kts 150°
2026-04-26 12:47 28.94578 29.28745 35023 ft 513 kts 150°
2026-04-26 12:47 28.89052 29.33898 35021 ft 513 kts 150°
2026-04-26 12:48 28.83532 29.39042 35026 ft 513 kts 150°
2026-04-26 12:48 28.78010 29.44186 35025 ft 512 kts 150°
2026-04-26 12:49 28.72512 29.49285 35029 ft 512 kts 150°
2026-04-26 12:49 28.66972 29.54412 35199 ft 513 kts 150°
2026-04-26 12:49 28.64240 29.56944 35426 ft 513 kts 150°
2026-04-26 12:50 28.61471 29.59509 35661 ft 513 kts 151°
2026-04-26 12:50 28.58705 29.62071 35870 ft 513 kts 151°
2026-04-26 12:50 28.55936 29.64637 36073 ft 513 kts 151°
2026-04-26 12:50 28.53171 29.67194 36270 ft 513 kts 151°
2026-04-26 12:51 28.50405 29.69749 36454 ft 512 kts 151°
2026-04-26 12:51 28.47636 29.72302 36643 ft 512 kts 151°
2026-04-26 12:51 28.44871 29.74848 36809 ft 512 kts 151°
2026-04-26 12:51 28.42107 29.77395 36974 ft 512 kts 151°
2026-04-26 12:52 28.39341 29.79945 37036 ft 512 kts 151°
2026-04-26 12:52 28.33804 29.85040 37040 ft 512 kts 151°
2026-04-26 12:53 28.28273 29.90117 37037 ft 512 kts 151°
2026-04-26 12:53 28.22738 29.95184 37042 ft 511 kts 151°
2026-04-26 12:54 28.17204 30.00246 37045 ft 511 kts 151°
2026-04-26 12:54 28.11671 30.05308 37048 ft 511 kts 151°
2026-04-26 12:55 28.06179 30.10332 37052 ft 511 kts 151°
2026-04-26 12:55 28.00638 30.15388 37058 ft 511 kts 151°
2026-04-26 12:56 27.95100 30.20443 37069 ft 512 kts 151°
2026-04-26 12:56 27.89563 30.25488 37080 ft 511 kts 152°
2026-04-26 12:57 27.84014 30.30521 37081 ft 511 kts 152°
2026-04-26 12:57 27.78477 30.35533 37079 ft 510 kts 152°
2026-04-26 12:58 27.70176 30.43047 37084 ft 510 kts 152°
2026-04-26 12:58 27.64648 30.48049 37086 ft 509 kts 152°
2026-04-26 12:59 27.59169 30.53143 37084 ft 518 kts 143°
2026-04-26 12:59 27.56894 30.56372 37090 ft 534 kts 131°
2026-04-26 12:59 27.54865 30.59883 37086 ft 535 kts 131°
2026-04-26 13:00 27.50866 30.66959 37084 ft 536 kts 130°
2026-04-26 13:00 27.46882 30.74057 37087 ft 536 kts 130°
2026-04-26 13:01 27.42879 30.81130 37086 ft 536 kts 131°
2026-04-26 13:01 27.38858 30.88181 37082 ft 536 kts 131°
2026-04-26 13:02 27.34824 30.95229 37095 ft 536 kts 131°
2026-04-26 13:02 27.30795 31.02273 37104 ft 536 kts 131°
2026-04-26 13:03 27.26766 31.09327 37108 ft 536 kts 131°
2026-04-26 13:03 27.22728 31.16370 37103 ft 536 kts 131°
2026-04-26 13:04 27.18679 31.23392 37096 ft 536 kts 131°
2026-04-26 13:04 27.14639 31.30420 37089 ft 536 kts 131°
2026-04-26 13:05 27.10602 31.37445 37074 ft 536 kts 131°
2026-04-26 13:05 27.06547 31.44468 37052 ft 536 kts 131°
2026-04-26 13:06 27.02488 31.51472 37046 ft 536 kts 131°
2026-04-26 13:06 26.98424 31.58491 37035 ft 537 kts 131°
2026-04-26 13:07 26.94361 31.65506 37032 ft 537 kts 131°
2026-04-26 13:07 26.90288 31.72529 37024 ft 537 kts 131°
2026-04-26 13:08 26.86205 31.79548 37016 ft 538 kts 131°
2026-04-26 13:08 26.82119 31.86557 37010 ft 538 kts 131°
2026-04-26 13:09 26.78027 31.93568 37002 ft 538 kts 131°
2026-04-26 13:09 26.74161 32.00785 36993 ft 548 kts 122°
2026-04-26 13:10 26.70962 32.08474 36989 ft 549 kts 122°
2026-04-26 13:10 26.67759 32.16230 36987 ft 550 kts 122°
2026-04-26 13:11 26.64550 32.23992 36987 ft 550 kts 122°
2026-04-26 13:11 26.61314 32.31743 36983 ft 550 kts 122°
2026-04-26 13:12 26.58070 32.39488 36981 ft 550 kts 122°
2026-04-26 13:12 26.54827 32.47227 36703 ft 549 kts 122°
2026-04-26 13:13 26.53210 32.51094 36456 ft 549 kts 122°
2026-04-26 13:13 26.51593 32.54952 36207 ft 549 kts 122°
2026-04-26 13:13 26.49975 32.58811 35634 ft 552 kts 122°
2026-04-26 13:13 26.48335 32.62712 34831 ft 556 kts 122°
2026-04-26 13:14 26.46689 32.66627 34181 ft 558 kts 122°
2026-04-26 13:14 26.45031 32.70552 33485 ft 559 kts 122°
2026-04-26 13:14 26.43379 32.74462 32878 ft 557 kts 120°
2026-04-26 13:14 26.41745 32.78343 32489 ft 548 kts 121°
2026-04-26 13:15 26.40136 32.82172 32023 ft 543 kts 121°
2026-04-26 13:15 26.38539 32.85967 31618 ft 537 kts 121°
2026-04-26 13:15 26.36963 32.89708 31246 ft 530 kts 121°
2026-04-26 13:15 26.35927 32.92165 30992 ft 526 kts 121°
2026-04-26 13:16 26.33855 32.97055 30486 ft 518 kts 120°
2026-04-26 13:16 26.32323 33.00656 30116 ft 511 kts 120°
2026-04-26 13:16 26.30807 33.04212 29677 ft 505 kts 120°
2026-04-26 13:16 26.29310 33.07728 29173 ft 500 kts 120°
2026-04-26 13:17 26.26363 33.14664 28161 ft 490 kts 120°
2026-04-26 13:17 26.24914 33.18075 27669 ft 486 kts 120°
2026-04-26 13:18 26.21986 33.24930 26067 ft 491 kts 120°
2026-04-26 13:18 26.20523 33.28347 25539 ft 487 kts 120°
2026-04-26 13:18 26.17658 33.35050 24571 ft 478 kts 120°
2026-04-26 13:19 26.16239 33.38365 24083 ft 473 kts 120°
2026-04-26 13:19 26.14827 33.41656 23607 ft 469 kts 120°
2026-04-26 13:19 26.13430 33.44911 23068 ft 464 kts 120°
2026-04-26 13:19 26.12049 33.48135 22538 ft 459 kts 120°
2026-04-26 13:20 26.10686 33.51318 22016 ft 454 kts 120°
2026-04-26 13:20 26.09330 33.54473 21511 ft 449 kts 120°
2026-04-26 13:20 26.07987 33.57589 21037 ft 444 kts 120°
2026-04-26 13:20 26.06659 33.60676 20585 ft 440 kts 120°
2026-04-26 13:21 26.05348 33.63734 20149 ft 436 kts 120°
2026-04-26 13:21 26.04486 33.65738 19880 ft 433 kts 120°
2026-04-26 13:21 26.02755 33.69757 19324 ft 428 kts 120°
2026-04-26 13:21 26.01463 33.72751 18482 ft 435 kts 120°
2026-04-26 13:22 26.00143 33.75797 17736 ft 437 kts 120°
2026-04-26 13:22 25.98827 33.78838 17104 ft 435 kts 119°
2026-04-26 13:22 25.97521 33.81857 16549 ft 431 kts 119°
2026-04-26 13:22 25.96223 33.84851 15965 ft 429 kts 119°
2026-04-26 13:23 25.94931 33.87830 15382 ft 427 kts 118°
2026-04-26 13:23 25.93669 33.90743 14696 ft 421 kts 118°
2026-04-26 13:23 25.92388 33.93703 13805 ft 417 kts 117°
2026-04-26 13:23 25.91140 33.96590 12838 ft 413 kts 117°
2026-04-26 13:24 25.89921 33.99411 11895 ft 408 kts 117°
2026-04-26 13:24 25.88701 34.02224 11163 ft 397 kts 117°
2026-04-26 13:24 25.87538 34.04911 10917 ft 374 kts 117°
2026-04-26 13:24 25.86453 34.07417 10605 ft 348 kts 117°
2026-04-26 13:25 25.85437 34.09759 10272 ft 326 kts 117°
2026-04-26 13:25 25.84473 34.11963 9935 ft 308 kts 118°
2026-04-26 13:25 25.83846 34.13395 9744 ft 304 kts 118°
2026-04-26 13:25 25.82634 34.16154 9414 ft 297 kts 118°
2026-04-26 13:26 25.82025 34.17545 9192 ft 296 kts 117°
2026-04-26 13:26 25.81131 34.19598 8833 ft 295 kts 117°
2026-04-26 13:26 25.80239 34.21639 8505 ft 293 kts 117°
2026-04-26 13:26 25.79351 34.23670 8169 ft 292 kts 117°
2026-04-26 13:27 25.78468 34.25696 7788 ft 291 kts 117°
2026-04-26 13:27 25.77590 34.27710 7397 ft 290 kts 117°
2026-04-26 13:27 25.76711 34.29722 7096 ft 289 kts 117°
2026-04-26 13:27 25.75835 34.31722 6807 ft 287 kts 117°
2026-04-26 13:28 25.75190 34.33779 6644 ft 279 kts 104°
2026-04-26 13:28 25.74747 34.35799 6447 ft 267 kts 104°
2026-04-26 13:28 25.74312 34.37795 5911 ft 260 kts 104°
2026-04-26 13:28 25.73884 34.39733 5303 ft 257 kts 104°
2026-04-26 13:29 25.73473 34.41583 4967 ft 244 kts 105°
2026-04-26 13:29 25.73078 34.43382 4493 ft 238 kts 105°
2026-04-26 13:29 25.72693 34.45130 4195 ft 225 kts 105°
2026-04-26 13:29 25.72279 34.46783 3761 ft 219 kts 115°
2026-04-26 13:30 25.71452 34.48116 3402 ft 204 kts 137°
2026-04-26 13:30 25.70318 34.48972 3163 ft 195 kts 150°
2026-04-26 13:30 25.69152 34.49716 2912 ft 192 kts 149°
2026-04-26 13:30 25.68018 34.50446 2667 ft 185 kts 149°
2026-04-26 13:31 25.66925 34.51150 2445 ft 179 kts 149°
2026-04-26 13:31 25.65861 34.51833 2215 ft 174 kts 148°
2026-04-26 13:31 25.64835 34.52490 1993 ft 165 kts 148°
2026-04-26 13:31 25.63871 34.53105 1808 ft 156 kts 148°
2026-04-26 13:32 25.62947 34.53700 1604 ft 153 kts 149°
2026-04-26 13:32 25.62029 34.54291 1387 ft 152 kts 149°
2026-04-26 13:32 25.61118 34.54879 1191 ft 151 kts 148°
2026-04-26 13:32 25.60220 34.55472 948 ft 150 kts 148°
2026-04-26 13:33 25.59334 34.56067 753 ft 148 kts 148°
2026-04-26 13:33 25.58456 34.56627 574 ft 145 kts 148°
2026-04-26 13:33 25.57585 34.57176 400 ft 144 kts 147°
2026-04-26 13:33 25.56725 34.57736 291 ft 143 kts 149°
2026-04-26 13:34 25.55941 34.58232 263 ft 109 kts 149°
2026-04-26 13:34 25.55435 34.58558 256 ft 60 kts 150°
2026-04-26 13:34 25.55177 34.58721 255 ft 37 kts 150°
2026-04-26 13:34 25.55092 34.58774 257 ft 10 kts 150°
2026-04-26 13:35 25.55058 34.58854 257 ft 11 kts 65°
2026-04-26 13:35 25.55096 34.58930 256 ft 12 kts 60°
2026-04-26 13:35 25.55142 34.59015 253 ft 15 kts 59°
2026-04-26 13:35 25.55199 34.59120 242 ft 13 kts 51°
2026-04-26 13:36 25.55284 34.59113 242 ft 14 kts 331°
2026-04-26 13:36 25.55370 34.59059 242 ft 15 kts 330°
2026-04-26 13:36 25.55453 34.59005 242 ft 9 kts 329°
2026-04-26 13:36 25.55463 34.58998 242 ft 1 kts 329°
2026-04-26 13:37 25.55475 34.58997 242 ft 2 kts
2026-04-26 13:37 25.55482 34.59007 242 ft 2 kts 59°
2026-04-26 13:37 25.55492 34.59025 242 ft 4 kts 60°
2026-04-26 13:37 25.55506 34.59052 242 ft 4 kts 60°
2026-04-26 13:38 25.55512 34.59064 242 ft 0 kts 60°